Location: Chipmunk Meadow
(41.1540°N, 122.8814°W)
Time: 15:29:03
(UTC+00:00)

Cosmos 1452 Rocket - Pass Details

Date: 13 April 2024
Orbit: 766 x 772 km, 74.1° (Epoch: 21 May)

Event Time Altitude Azimuth Distance (km) Brightness Sun altitude
Rises 13:01:51 0° 342° (NNW) 3,250 6.8 -6.7°
Reaches altitude 10° 13:04:16 10° 345° (NNW) 2,318 6.1 -6.3°
Maximum altitude 13:09:30 69° 69° (ENE) 821 4.0 -5.3°
Drops below altitude 10° 13:14:42 10° 153° (SSE) 2,298 6.1 -4.4°
Sets 13:17:05 0° 156° (SSE) 3,220 6.8 -4.0°
